Theta_e
281 281 281 281 281 281 281 281 281 281 281 281 282 282 282 281 282 281 281 281 282 281 281 280 280 280 280 280 280 280 279 279 279 279 278 279 279 278 278 278 278 278 278 278 277 277 277 277 277 278 277 277 277 277 277 278 278 277 277 278 278 278
281 281 281 281 281 281 281 281 281 281 281 282 281 282 281 282 282 282 281 281 281 280 280 280 280 280 279 279 279 278 278 278 278 278 278 278 278 278 278 277 277 277 277 277 277 276 276 276 276 277 276 276 276 276 276 277 277 276 276 277 277 278
281 281 281 281 281 282 281 281 281 282 282 281 282 281 281 281 281 281 281 280 280 280 279 279 279 278 278 278 278 278 278 278 278 278 278 278 277 277 277 276 276 276 276 276 276 275 275 275 275 276 276 276 275 276 276 276 276 275 276 276 276 277
281 281 282 282 282 282 281 281 281 281 281 281 281 280 280 280 280 281 280 280 279 279 278 278 278 278 278 277 277 277 277 277 277 277 277 276 276 276 275 275 275 275 275 274 274 274 274 275 275 275 275 274 274 274 275 275 275 275 275 275 275 276
281 281 282 282 282 282 281 281 281 281 280 280 280 280 280 281 281 280 280 279 278 277 277 277 277 277 277 277 276 276 276 276 276 276 275 274 274 275 275 274 274 274 274 273 273 274 274 274 273 273 273 273 273 273 273 274 274 274 273 274 274 274
281 281 281 281 281 281 281 281 281 281 280 281 281 281 281 280 280 279 279 278 277 277 277 277 277 276 276 276 276 275 275 275 275 274 273 273 273 273 273 273 273 273 273 272 272 272 272 272 272 272 272 272 272 272 272 272 273 273 273 273 273 274
280 281 282 282 282 282 282 282 282 282 281 280 280 280 280 279 279 279 278 278 277 277 277 276 276 276 275 275 275 274 274 273 273 273 272 272 272 272 272 272 272 272 271 271 271 271 271 271 271 271 271 271 272 271 272 272 272 273 273 273 273 273
281 281 282 282 283 283 283 283 283 282 281 280 280 279 279 279 279 278 278 277 277 276 276 276 275 275 275 274 274 273 273 272 272 271 271 271 270 271 271 270 270 271 270 270 270 270 270 270 270 270 270 270 271 271 272 272 272 272 272 273 273 273
281 281 282 283 283 283 284 283 282 282 281 280 280 279 279 279 278 278 278 277 277 276 276 275 275 275 274 273 273 272 271 271 270 270 269 270 269 269 269 269 269 269 269 269 269 269 269 269 269 269 269 269 270 271 272 272 272 272 272 272 273 273
281 282 282 283 283 283 283 282 282 282 281 281 280 279 279 279 278 277 277 277 276 276 275 275 274 274 273 272 272 271 270 269 269 268 268 268 268 268 268 267 267 268 268 268 267 268 268 268 268 268 268 269 271 272 272 272 272 272 272 272 273 273
282 282 282 282 283 282 282 282 282 281 281 281 280 279 279 279 278 277 276 276 275 275 275 274 273 273 272 271 270 269 268 268 268 267 267 267 267 267 267 267 267 266 266 266 267 267 267 267 267 267 268 271 272 272 272 272 272 272 272 272 272 272
282 281 281 281 282 282 281 281 282 281 280 280 279 279 279 278 278 276 276 275 274 274 273 272 272 271 270 269 268 267 267 267 266 266 266 266 266 266 266 266 266 266 265 265 266 266 266 266 266 267 271 273 273 273 272 272 272 272 272 271 271 271
281 281 281 281 281 281 282 282 282 281 280 280 278 278 277 278 277 276 276 275 273 272 271 270 270 269 268 268 267 266 266 266 265 265 264 264 264 264 265 265 265 265 265 265 265 265 265 265 266 269 272 273 274 274 273 272 272 272 272 271 271 270
281 281 281 281 281 282 282 281 281 280 279 279 278 277 276 276 276 275 274 273 272 271 270 269 268 267 267 266 265 265 264 264 263 263 263 263 263 264 264 264 264 264 264 264 264 264 264 265 267 270 272 273 274 275 273 272 272 272 272 271 271 270
281 281 281 281 281 281 282 282 281 280 279 278 277 275 275 275 275 274 272 271 270 269 268 267 266 266 265 264 264 264 263 262 263 262 262 262 263 263 263 263 263 263 263 263 263 263 263 264 266 269 271 273 274 274 274 272 272 271 271 270 269 269
282 282 282 281 282 282 282 281 281 280 279 277 275 274 274 274 273 272 271 269 269 268 267 266 265 265 264 263 263 263 262 262 262 262 262 262 262 262 262 262 262 262 262 262 262 262 263 263 265 269 272 273 273 274 274 272 271 271 269 269 268 268
281 281 280 280 281 280 279 279 279 277 275 275 274 274 273 272 272 270 270 268 268 267 266 266 264 264 263 263 262 262 262 261 261 262 262 261 262 262 261 261 261 261 261 261 261 261 261 262 267 269 271 272 273 274 274 271 270 269 269 269 269 269
280 280 280 280 279 279 279 279 277 276 275 273 274 272 272 271 270 269 268 267 266 266 265 264 263 263 263 262 261 261 262 261 261 261 261 261 261 261 261 261 261 260 260 260 260 260 260 261 266 268 270 272 273 274 271 270 269 269 269 269 269 269
280 280 279 278 278 278 278 277 275 275 272 272 271 270 270 269 269 269 268 267 266 265 265 265 263 262 262 261 261 260 260 261 260 260 260 259 260 260 260 259 259 260 260 259 259 259 260 260 263 268 270 271 273 272 269 269 269 269 268 269 269 269
278 278 278 277 277 277 276 274 274 273 272 271 269 269 269 269 269 269 267 266 265 265 264 264 262 261 261 260 259 260 262 260 260 259 259 259 259 259 259 259 258 259 259 259 258 259 259 260 263 268 269 271 272 272 269 269 268 268 269 269 270 270
277 276 276 276 276 275 274 273 272 272 271 270 269 269 269 269 269 268 267 266 265 264 263 262 262 262 260 260 261 259 259 259 259 259 258 258 258 258 258 258 258 258 258 258 258 260 261 260 261 266 268 270 271 271 270 270 269 268 269 269 269 270
274 274 274 274 276 273 272 271 272 272 271 269 269 268 269 270 269 268 267 266 264 263 262 262 261 260 259 260 259 258 258 258 257 257 258 257 257 257 257 257 257 256 257 258 258 258 259 259 260 261 268 270 271 272 270 270 269 269 269 269 269 269
276 276 276 276 274 271 271 271 271 271 270 269 268 269 271 270 268 266 265 264 263 262 261 261 260 259 258 259 258 259 257 257 259 258 257 256 256 256 256 256 256 257 257 258 259 259 259 259 260 261 268 270 271 272 272 270 270 270 270 270 270 271
273 273 272 272 271 270 270 271 271 272 269 268 268 271 270 267 266 265 263 263 262 261 260 258 258 258 257 256 256 256 256 256 256 256 256 256 256 255 255 256 256 256 257 258 258 258 259 260 262 262 266 270 271 273 274 272 272 273 272 271 271 271
273 273 274 271 269 269 269 270 271 270 268 268 271 270 266 265 264 264 263 262 260 259 258 257 256 256 255 255 256 255 255 255 254 254 254 254 254 254 254 255 256 256 256 257 258 259 259 260 261 265 266 270 272 274 274 275 274 276 274 272 271 272
274 274 272 269 269 268 269 270 271 270 268 270 271 266 264 263 263 262 261 260 259 258 257 255 254 254 254 255 255 254 254 254 254 254 253 254 254 255 255 256 256 256 256 256 257 258 260 261 263 265 269 270 272 274 275 275 276 276 274 274 273 273
274 273 271 269 268 268 268 269 271 270 269 271 266 265 263 262 261 261 260 259 257 256 255 253 253 253 252 253 254 254 254 254 251 254 254 254 254 255 254 255 254 255 255 256 257 259 261 263 265 266 268 271 272 273 274 275 276 276 277 273 272 272
270 269 271 269 267 267 267 268 270 270 271 268 265 264 263 261 260 260 259 257 256 256 254 254 253 252 253 253 253 254 254 254 254 255 254 254 255 254 253 255 255 255 255 256 258 261 263 265 266 267 268 269 270 271 273 274 275 275 275 274 272 273
270 270 270 270 267 266 266 266 267 270 265 263 264 263 261 260 261 260 258 257 256 254 253 255 255 254 253 252 253 253 254 254 254 253 255 255 254 254 254 254 255 255 256 257 259 262 264 265 265 267 268 268 269 269 271 272 273 273 273 271 270 270
271 271 270 271 270 267 266 265 266 265 262 263 263 261 260 260 260 260 258 256 255 255 254 255 256 256 254 254 253 254 253 253 254 254 254 254 254 254 254 254 255 256 257 259 261 262 263 263 265 267 267 268 269 271 272 273 271 271 270 269 269 268
270 271 271 272 271 267 265 265 264 263 262 262 261 260 261 261 260 258 256 255 254 254 254 254 254 255 255 255 254 254 255 255 254 254 255 255 256 256 256 256 257 259 259 260 261 262 262 265 267 267 271 271 273 272 272 271 271 271 269 270 271 264
271 271 271 272 270 267 265 264 263 262 262 261 261 261 262 261 259 257 257 256 255 254 254 255 254 254 255 254 254 252 253 257 262 259 256 257 261 265 266 265 260 261 262 262 263 264 266 267 268 272 273 273 273 274 274 273 273 273 270 271 269 264
269 270 270 271 268 266 265 264 263 261 261 261 261 261 262 260 259 258 258 256 256 256 256 255 255 255 254 254 254 253 254 254 257 263 267 267 267 268 269 270 271 272 272 269 268 270 272 272 272 272 272 273 273 274 273 273 272 271 270 270 264 259
268 268 270 270 268 266 264 264 263 261 261 260 260 261 261 260 261 260 259 258 258 258 257 257 257 256 255 255 255 254 254 253 254 256 262 265 267 268 269 270 270 271 271 271 271 270 268 269 271 271 272 272 273 272 272 272 271 270 269 269 265 257
270 270 270 267 266 265 264 263 262 261 260 259 259 259 259 258 259 260 259 259 258 258 258 257 257 257 257 255 253 253 253 253 253 254 256 259 263 265 267 268 269 270 270 271 271 270 270 270 270 271 271 272 272 271 271 270 268 267 267 266 259 255
269 268 267 266 265 265 263 263 262 260 259 258 258 258 258 258 258 260 260 259 258 258 258 258 257 257 256 255 254 253 253 254 254 253 253 254 255 258 261 265 266 266 267 267 268 268 269 269 269 270 271 271 270 270 269 267 263 265 265 263 258 256
266 265 265 264 263 262 262 262 261 259 258 258 257 257 257 258 259 260 259 258 258 258 258 258 258 257 255 254 254 254 254 254 254 255 254 253 254 255 256 256 257 260 263 263 264 266 268 268 269 269 270 270 269 268 267 264 256 256 256 256 255 255
264 263 260 261 261 261 261 261 258 258 258 257 257 257 258 258 259 259 259 258 258 257 258 257 256 256 255 254 254 254 254 254 254 255 254 255 255 255 254 255 256 256 259 262 264 266 267 267 268 268 269 268 267 266 264 255 254 254 254 255 255 255
Wind_Speed
8 8 8 7 7 6 6 6 6 6 6 6 7 10 9 9 7 6 6 6 6 5 5 6 5 5 6 5 5 4 6 6 5 5 5 4 4 5 5 6 6 6 7 6 7 7 7 7 7 7 6 7 6 6 5 5 6 6 6 5 6 6
9 9 10 9 9 8 7 7 6 7 7 7 7 6 6 7 7 7 7 6 6 6 5 5 5 5 6 5 5 5 6 5 5 5 6 6 5 6 6 6 6 6 6 6 6 6 6 6 6 6 6 6 5 6 6 7 8 8 8 7 6 5
9 9 7 6 6 6 6 7 8 8 7 7 8 10 9 8 7 7 7 7 6 7 7 6 6 6 4 5 5 6 6 5 5 6 5 5 6 5 6 6 6 6 5 5 6 6 6 6 7 6 6 6 6 6 6 7 8 8 8 8 8 7
10 7 5 6 6 7 8 8 7 7 8 8 8 7 8 9 7 7 7 6 6 8 7 6 4 4 4 6 6 7 6 6 6 5 5 6 5 4 4 5 4 4 4 4 5 5 5 6 6 7 6 6 7 7 5 6 8 8 8 8 9 9
9 9 10 10 9 8 8 8 8 8 9 9 8 9 9 8 8 7 7 7 8 7 6 5 4 4 7 7 6 7 6 5 5 4 4 4 3 3 4 4 4 4 4 4 5 5 5 6 6 6 6 6 7 7 7 7 8 9 9 10 10 10
8 8 9 9 8 9 10 8 8 8 8 9 8 9 9 8 7 8 8 8 7 6 6 5 5 7 6 6 5 6 5 4 4 4 4 3 3 3 4 4 4 4 4 4 4 5 5 5 6 5 6 6 7 7 8 8 8 8 8 9 9 10
11 11 10 10 10 9 8 9 9 9 9 9 9 8 8 7 7 7 7 8 8 5 6 6 5 6 6 6 5 6 5 4 3 3 4 3 3 3 3 3 3 3 4 4 5 5 5 5 6 6 6 6 6 7 7 7 7 8 8 8 9 9
9 10 11 10 10 10 10 9 9 9 8 9 8 8 7 7 6 7 8 8 8 7 7 6 5 6 6 6 5 5 4 4 3 3 3 3 2 3 3 3 3 3 4 4 4 4 5 5 5 6 6 6 6 6 7 7 7 7 8 8 9 9
14 14 12 11 11 10 9 10 9 9 9 9 8 7 8 8 7 7 8 7 8 7 6 5 5 5 5 5 5 4 4 3 3 2 2 2 2 3 3 3 3 3 3 4 4 4 5 5 5 5 6 6 7 7 7 8 8 9 8 8 9 10
11 11 13 13 11 10 9 8 9 10 10 10 8 8 7 7 7 8 7 8 7 7 6 5 5 5 5 5 5 4 3 3 2 2 2 2 3 3 3 3 3 3 3 3 3 4 4 5 5 5 5 6 7 8 8 8 9 9 9 9 9 10
15 14 12 12 11 12 11 9 9 8 8 8 8 8 9 8 8 8 8 7 8 6 6 5 5 5 5 5 4 3 3 2 2 2 2 2 2 2 3 3 3 3 3 3 3 4 4 4 4 4 5 7 8 8 9 9 9 10 10 10 10 10
10 10 10 10 12 12 11 10 10 10 10 9 8 9 8 8 8 9 8 8 7 6 6 6 5 5 4 4 4 3 3 2 2 2 2 2 2 2 2 2 2 3 3 4 3 4 3 4 3 6 12 11 9 9 8 9 9 9 10 10 11 11
8 9 11 12 12 13 13 13 11 10 9 9 9 9 8 8 8 8 9 8 7 7 6 5 5 4 4 4 3 3 2 2 1 1 1 1 1 2 2 2 2 3 3 3 4 4 4 4 4 11 12 12 13 10 9 9 9 9 10 10 11 11
11 12 14 14 15 15 14 12 11 10 11 9 10 8 8 8 8 9 8 8 8 6 6 5 5 5 4 4 3 3 3 2 2 1 1 0 1 1 1 2 2 3 3 3 4 4 5 5 8 12 13 13 13 12 9 8 8 8 9 10 10 10
13 14 14 13 13 13 14 13 11 12 12 11 8 8 8 8 8 8 9 8 9 8 6 6 5 4 4 3 4 3 3 3 2 1 1 1 1 1 2 2 3 3 3 4 4 5 6 6 9 13 14 13 14 14 12 8 8 8 8 9 10 11
9 10 12 13 13 14 12 10 13 11 8 8 8 10 9 9 8 8 8 8 8 8 7 7 6 5 5 4 4 3 3 3 2 1 0 0 1 1 2 2 3 3 4 4 5 5 6 7 9 14 14 14 14 14 13 8 8 8 9 10 10 10
10 9 8 10 11 9 8 8 7 7 8 9 10 8 10 8 9 8 9 8 7 7 5 6 6 6 5 4 4 3 3 2 1 0 0 1 2 2 2 3 3 4 4 4 5 5 6 6 12 13 15 15 15 15 13 8 8 8 8 9 10 10
11 12 13 8 7 8 9 10 8 10 9 8 10 9 8 8 8 8 8 8 8 8 7 7 6 5 5 4 4 3 2 1 1 0 1 1 1 1 2 2 2 4 5 5 5 6 7 7 13 14 15 16 15 16 9 7 8 8 9 9 10 11
6 6 4 6 8 9 10 8 9 9 9 9 6 8 7 7 8 9 9 8 9 9 7 6 6 6 5 4 4 3 2 2 1 1 1 1 2 2 2 2 3 3 5 5 5 6 7 7 10 14 16 16 17 13 8 8 8 8 9 11 11 11
3 4 7 8 8 8 7 9 10 10 9 9 8 8 9 8 10 9 9 10 8 8 8 5 6 6 5 5 5 4 3 2 1 1 1 2 2 3 2 2 3 3 4 5 6 5 7 6 10 15 16 16 16 14 9 8 8 10 10 10 12 12
4 5 5 7 9 7 8 9 10 10 9 9 10 8 9 10 10 10 11 9 9 8 7 6 5 6 6 5 5 5 3 2 2 1 1 2 2 3 2 2 3 3 3 4 6 9 9 7 9 15 16 17 16 13 9 9 9 9 9 8 10 11
6 5 6 9 10 8 10 9 10 10 10 10 9 9 11 13 13 10 8 8 9 8 6 6 6 6 6 6 5 4 3 2 1 1 1 1 1 2 2 3 3 5 4 4 5 5 6 7 6 9 17 16 16 16 10 9 9 10 10 10 9 9
8 10 12 9 8 10 9 9 9 9 9 10 9 12 15 10 8 9 9 9 8 7 6 5 6 6 5 4 5 3 2 2 1 1 1 2 2 2 3 4 4 4 4 3 5 5 6 5 7 8 16 16 16 16 14 9 9 10 10 8 8 8
6 4 3 4 9 9 10 10 11 10 10 9 12 16 8 9 9 9 8 8 8 7 6 6 4 4 5 4 5 4 2 1 1 1 2 1 2 4 5 4 3 4 4 3 4 4 6 7 11 9 13 16 16 15 17 11 10 11 11 13 12 14
8 10 9 6 9 9 9 11 12 10 10 11 18 9 9 9 9 9 8 8 8 7 7 6 6 5 4 4 5 4 2 1 1 2 2 3 3 4 5 5 4 4 4 3 2 4 5 6 7 13 12 15 15 16 16 18 15 19 13 12 10 9
8 8 6 7 8 9 9 12 12 11 11 17 9 8 8 8 8 9 9 8 8 7 7 6 5 6 5 5 4 3 2 2 3 3 3 3 3 3 4 3 3 3 4 4 4 3 4 6 6 9 13 12 15 16 18 18 19 19 12 11 12 12
11 10 7 8 9 9 10 10 13 13 15 13 8 10 11 10 10 10 9 9 8 8 7 6 5 5 5 5 5 4 3 3 3 3 3 3 2 2 4 4 2 3 4 5 5 5 5 6 6 6 9 14 15 17 18 19 20 19 19 13 10 13
5 5 9 8 8 9 9 10 10 14 18 7 9 9 10 11 11 10 10 9 8 8 8 7 6 4 5 5 4 4 4 4 4 3 3 2 3 3 3 4 3 3 4 5 5 6 6 6 6 6 7 8 11 12 17 20 19 17 19 19 15 20
7 9 10 11 10 10 10 11 11 11 4 9 9 9 9 11 11 10 9 10 8 7 7 7 6 4 4 3 3 4 3 4 3 3 3 3 3 3 4 4 3 3 4 4 5 6 6 6 7 6 7 8 7 8 9 10 7 14 17 11 11 14
9 10 10 12 11 10 10 10 11 8 5 6 9 10 10 10 11 11 10 9 8 7 7 6 4 5 4 4 5 4 4 4 4 5 6 6 5 4 5 4 4 4 4 5 5 6 6 7 6 6 8 7 7 7 8 6 6 9 6 8 10 8
11 12 11 13 8 8 9 11 9 7 8 8 9 11 12 11 9 7 7 7 7 6 5 5 5 5 5 4 4 4 5 5 5 7 6 6 4 5 6 5 6 7 6 5 6 7 7 6 6 6 10 10 14 12 10 7 8 8 5 11 13 8
11 12 12 13 7 9 11 11 9 8 8 8 10 11 12 11 9 8 8 7 7 6 6 6 5 5 6 5 6 4 4 8 12 9 7 7 11 16 17 14 8 8 7 8 8 8 8 5 5 12 16 15 16 17 16 15 16 15 12 14 12 8
10 10 10 11 7 9 9 9 9 9 9 9 10 11 10 11 9 7 7 8 8 8 8 7 7 6 5 5 4 3 3 4 5 11 15 15 13 14 15 16 19 19 17 11 8 7 13 15 15 15 14 15 15 15 15 15 14 15 14 13 7 6
9 11 15 11 8 9 9 9 9 10 9 9 9 9 9 10 10 10 8 8 7 7 6 5 5 4 4 4 3 3 3 3 6 8 6 9 11 12 14 15 16 16 15 17 15 8 4 9 12 13 14 15 14 13 13 13 13 13 12 10 9 3
12 11 9 6 7 8 9 9 9 9 9 10 10 9 9 9 8 7 7 7 8 7 6 6 5 5 5 5 5 4 3 4 4 5 8 4 2 7 12 14 14 13 12 10 9 10 10 11 11 12 13 13 12 11 11 11 11 11 9 9 5 2
7 7 7 7 8 9 8 10 9 10 10 10 10 10 10 10 10 8 7 9 9 7 5 5 5 5 5 4 4 4 5 4 4 4 3 5 9 5 2 6 8 8 8 8 10 11 12 11 11 11 12 11 9 9 10 9 6 6 6 7 3 3
6 6 7 8 7 7 9 10 7 8 9 10 10 10 8 8 8 6 5 8 7 5 6 5 5 5 5 4 4 4 4 5 3 4 3 4 4 6 9 7 5 7 8 7 9 12 13 11 11 11 11 8 7 8 9 7 5 4 3 3 1 3
6 6 5 5 6 7 8 6 5 7 8 9 10 10 9 8 8 6 5 4 5 5 4 5 6 4 6 5 5 4 4 5 4 5 4 5 4 5 5 7 6 3 6 11 14 13 11 10 11 10 9 5 6 7 8 4 3 3 3 3 3 2
Wind_Direction
187 187 191 191 194 190 183 169 161 161 160 163 152 148 152 150 148 144 133 126 117 124 128 122 110 100 94 90 91 90 88 84 80 75 76 73 52 48 40 36 32 28 23 23 18 16 15 13 10 6 5 3 0 358 353 350 350 343 339 338 338 329
187 186 188 191 188 183 182 172 164 171 170 162 158 143 142 146 153 151 139 136 130 123 113 100 101 92 93 91 99 89 82 81 75 72 64 54 48 44 39 37 33 23 21 18 16 12 12 9 6 3 0 355 0 352 351 347 346 343 339 336 337 329
187 191 186 185 179 177 173 176 179 176 166 167 170 163 165 167 166 155 149 141 134 128 116 107 95 102 104 103 93 87 76 70 62 58 57 49 46 37 35 36 29 22 19 15 13 12 6 5 1 360 355 355 352 351 344 343 344 340 335 333 332 335
186 175 170 182 176 179 181 188 178 172 178 178 175 172 174 166 170 165 151 150 138 115 109 106 114 122 116 94 76 71 67 57 54 51 50 53 41 43 39 38 28 23 18 16 14 9 5 3 360 354 353 351 349 347 349 343 343 337 333 336 331 335
178 178 185 187 184 185 188 185 184 182 182 179 184 176 182 176 165 150 148 136 120 117 123 132 127 111 84 80 76 75 70 66 61 55 60 54 49 39 50 32 30 22 20 18 14 9 5 3 357 352 352 349 348 343 342 343 341 339 336 335 331 331
167 174 189 185 188 194 194 190 187 185 185 187 180 184 176 167 153 152 131 120 119 136 138 118 98 88 91 88 86 86 78 75 72 63 59 53 47 49 36 35 28 26 21 18 17 10 5 359 351 349 350 346 345 342 337 338 337 332 330 326 324 326
185 189 187 189 194 194 191 191 191 187 190 185 182 183 173 160 155 141 136 134 136 136 113 102 101 103 100 97 95 93 88 80 73 61 55 40 46 39 39 26 28 27 22 19 14 5 4 355 344 345 344 342 342 337 332 328 326 325 322 320 318 319
187 188 192 192 195 194 192 192 192 194 192 192 185 176 167 166 153 151 144 150 133 120 115 119 116 110 107 106 103 97 90 79 64 61 47 48 37 41 35 34 21 24 17 15 12 1 356 345 341 339 337 336 336 330 325 322 319 318 319 315 315 314
200 198 190 194 194 193 193 191 193 197 196 197 194 185 171 165 158 158 152 143 129 127 129 130 126 120 115 112 106 101 92 81 72 64 64 36 49 44 38 23 30 14 20 8 6 358 351 339 335 334 334 333 330 325 323 324 324 323 321 319 317 317
196 192 194 192 194 193 196 194 196 196 196 197 193 183 171 165 161 160 151 140 132 133 137 131 128 118 115 112 107 101 98 92 80 67 56 49 37 41 31 15 13 10 9 5 357 349 339 330 328 329 325 321 324 327 325 324 322 320 317 315 313 314
197 197 191 191 187 194 197 195 199 202 204 201 189 174 183 168 162 157 149 144 140 144 140 132 118 114 114 113 109 107 103 89 74 61 52 45 37 28 21 7 360 2 1 357 351 342 332 324 323 327 319 324 327 325 320 319 316 314 313 312 310 309
193 192 189 189 193 195 195 197 199 199 197 197 181 180 179 159 169 154 153 152 147 141 135 123 118 120 121 119 120 114 108 90 77 69 58 38 36 14 6 0 355 2 351 345 338 337 323 313 313 305 315 319 318 318 314 311 309 310 309 308 306 305
193 188 193 198 196 198 198 200 198 193 195 190 180 184 173 169 160 161 158 152 143 137 130 124 127 126 126 127 122 119 124 119 137 105 94 38 21 357 359 345 352 352 339 340 334 327 321 304 301 309 316 316 315 313 310 307 306 305 304 302 302 302
199 198 200 200 200 200 199 196 194 186 196 185 183 175 158 165 162 160 160 142 141 140 135 133 134 132 132 136 147 146 148 157 154 136 117 24 2 342 334 339 351 330 336 327 329 319 310 303 304 313 313 312 312 312 309 306 302 301 299 302 304 304
201 201 204 204 203 201 204 194 182 192 190 182 178 144 162 165 161 153 145 147 142 139 137 139 142 141 146 162 163 156 157 149 148 136 144 14 317 302 330 345 335 327 329 325 323 315 307 296 305 309 310 310 312 311 310 303 299 297 301 304 302 299
209 210 208 205 205 205 200 185 189 188 170 160 151 161 163 155 155 156 154 151 150 142 146 143 146 152 162 166 159 151 142 132 137 129 229 325 311 328 325 326 325 326 324 322 316 307 301 297 301 308 310 313 311 310 309 301 302 300 298 296 296 297
203 204 206 211 205 191 165 182 176 146 146 158 161 167 156 161 152 158 156 159 151 148 151 158 155 159 162 159 148 137 133 132 144 202 235 324 320 326 322 323 319 311 311 308 308 303 297 291 306 311 312 312 312 311 315 309 302 293 289 293 295 295
198 197 208 194 165 176 179 179 160 155 163 158 162 160 161 156 159 162 155 163 168 166 168 161 160 159 155 151 140 125 136 149 177 249 292 288 288 275 288 296 300 303 307 305 302 300 296 296 312 313 313 313 314 316 316 304 295 290 289 291 294 295
207 203 152 161 174 168 183 162 156 151 146 160 163 158 157 158 168 177 176 177 170 174 171 163 155 156 154 152 144 146 172 171 207 238 214 261 286 294 295 288 292 296 294 296 293 295 294 294 308 312 313 315 315 317 304 300 296 290 291 293 294 296
163 154 160 164 176 180 157 154 154 150 155 163 159 159 168 173 189 182 180 182 176 173 166 160 154 157 159 157 161 165 176 174 209 218 211 266 287 291 278 292 292 277 276 283 287 287 294 293 306 311 313 314 312 311 306 299 293 290 285 278 284 284
159 152 145 157 176 178 155 153 152 152 168 167 170 172 173 195 191 183 188 182 167 164 156 154 158 157 162 167 166 164 176 196 204 210 218 233 245 269 284 292 288 279 274 266 277 296 300 296 301 307 308 310 310 310 302 297 289 280 281 272 275 277
122 142 163 184 193 158 157 156 160 170 169 176 163 177 195 201 196 183 164 151 154 151 154 159 161 164 166 167 160 165 177 180 179 215 239 264 273 279 291 282 275 280 281 279 284 287 292 293 288 295 301 306 307 308 304 298 296 291 281 274 273 285
180 187 192 195 163 156 162 158 159 177 179 166 175 199 209 192 158 161 160 147 151 156 158 160 164 165 170 162 159 157 159 172 202 231 259 281 293 289 290 281 274 276 281 285 289 288 288 276 284 287 298 304 306 306 306 295 279 274 273 268 271 275
199 204 204 172 163 165 164 167 173 184 167 172 198 213 184 148 161 155 154 158 161 161 159 160 160 157 159 155 139 151 182 197 173 221 243 257 271 282 280 281 280 280 285 292 289 283 280 283 284 283 291 298 304 306 306 304 297 300 302 302 301 296
198 210 203 171 166 171 176 172 179 177 178 187 214 186 147 158 154 156 155 156 160 164 164 163 159 162 159 153 161 152 182 196 206 239 222 226 252 261 275 275 281 291 299 301 291 279 273 272 273 284 287 295 307 309 312 310 309 309 307 303 287 286
204 211 194 174 179 178 180 178 183 184 181 212 192 137 146 150 157 152 156 163 166 160 164 166 164 164 164 159 152 149 173 216 222 229 226 218 227 248 270 278 287 300 305 308 300 279 273 276 279 275 287 304 311 315 315 314 312 312 307 303 306 312
204 204 199 193 185 190 190 195 185 185 201 212 141 165 159 160 156 161 167 169 167 167 165 161 169 167 167 166 152 159 181 219 201 228 237 208 233 241 263 275 276 283 292 297 294 299 296 293 292 294 298 310 316 317 316 315 315 315 320 323 320 317
212 190 207 210 198 197 198 202 194 188 214 160 160 160 163 156 160 168 173 167 168 172 163 168 175 173 174 167 170 176 185 194 203 209 231 220 235 229 242 267 266 270 273 276 282 293 296 286 289 298 300 305 304 301 304 308 313 321 326 324 319 318
200 211 209 217 207 201 205 203 212 216 144 160 160 159 161 165 168 168 164 174 172 168 174 175 181 179 177 176 176 186 186 191 193 205 229 225 228 235 233 249 248 259 258 255 276 285 283 286 291 281 302 310 297 295 290 290 309 331 327 328 326 322
210 218 214 224 215 200 203 206 214 207 168 162 159 159 159 169 176 174 178 174 174 174 176 179 171 170 181 190 175 187 200 208 196 198 213 201 205 206 231 219 233 236 247 253 264 266 272 283 261 289 307 286 269 279 297 309 332 329 332 341 322 349
211 220 215 229 212 186 198 210 210 190 182 175 162 161 168 175 176 165 164 169 165 178 171 179 181 185 183 193 199 217 204 190 193 212 231 225 193 208 223 233 236 242 239 244 254 266 271 255 284 298 293 299 309 311 313 331 331 326 353 331 342 16
211 217 219 231 203 190 200 206 200 190 186 171 171 171 176 171 163 167 176 173 179 175 174 177 189 182 185 192 208 223 264 239 231 220 211 242 228 232 236 229 221 227 237 250 252 236 246 268 284 300 306 309 308 311 318 322 324 329 334 329 2 15
216 222 228 230 198 199 200 201 194 187 187 178 178 180 177 162 166 177 178 172 192 185 181 176 171 183 181 191 183 199 233 312 278 255 248 248 248 254 256 256 257 257 252 251 258 267 281 291 300 304 305 305 307 314 321 324 328 336 334 335 12 6
219 218 226 223 197 201 196 199 195 189 182 176 176 181 173 173 172 183 190 182 170 178 176 174 176 172 180 184 190 187 205 246 294 299 255 236 252 258 261 262 265 268 272 272 267 266 300 293 294 297 303 304 309 319 323 326 338 340 334 342 23 355
217 220 224 206 198 198 197 199 199 178 177 174 175 173 174 183 187 186 178 184 174 167 165 171 174 178 177 180 185 195 195 207 218 253 302 317 256 270 271 272 268 271 274 272 274 283 287 291 297 300 302 303 313 325 326 337 355 340 338 357 9 329
220 218 212 207 202 200 194 205 197 181 176 168 172 177 182 181 189 188 184 177 173 171 176 173 178 176 180 180 183 185 188 211 206 216 228 294 316 326 269 272 295 308 317 315 301 295 294 294 298 301 299 305 323 331 333 356 355 334 7 5 341 319
213 213 208 201 195 195 202 213 194 171 166 169 170 174 179 184 187 185 175 172 177 179 173 166 171 171 170 172 191 190 203 208 211 203 209 213 230 275 294 296 297 304 305 294 299 298 291 293 298 300 300 313 345 341 351 15 19 359 337 352 298 291
204 211 189 184 188 198 208 212 163 163 165 167 170 175 180 181 181 179 163 162 179 175 174 160 161 171 178 189 195 190 195 193 201 215 221 224 226 228 252 281 277 266 272 283 279 273 278 292 298 296 299 328 360 358 26 14 346 337 314 309 295 277